[[{"header":{"parameterUnit":"m.s-1","parameterCategory":1,"la1":30.2991,"la2":30.254,"lo1":-89.0895,"lo2":-89.0444,"dy":0.0017,"dx":0.0017,"nx":28,"ny":28,"refTime":"2024-09-29T03:00:00:Z","depth":0,"parameterNumber":2,"parameterNumberName":"U-component_of_WINDS"},"data":[0,0,0,0,0,0,0,0,0,0,0,0,0,0,0,0,0,0,0,0,0,0,0,0,0,0,0,0,0,0,0,0,0,0,0,0,0,0,0,0,0,0,0,0,0,0,0,0,0,0,0,0,0,0,0,0,0,0,1.3309,1.3311,0,1.3456,1.3457,1.3459,1.3449,1.3447,1.3445,1.3443,1.36,1.3606,1.3612,0,0,0,0,0,0,0,0,0,0,0,0,0,1.3029,1.3034,1.3309,1.3311,1.3313,1.3455,1.3457,1.3459,1.345,1.3447,1.3444,1.3442,1.3598,1.3605,1.3613,0,0,0,0,0,0,0,0,0,0,0,0,0,1.3161,1.3036,1.3309,1.3325,1.3328,1.3455,1.3458,1.346,1.345,1.3447,1.3444,1.344,1.3596,1.3605,1.3614,1.3737,0,0,1.3643,1.3647,0,0,0,0,0,0,0,0,1.3153,1.3171,1.3321,1.3324,1.3327,1.3431,1.3416,1.3553,1.3451,1.3404,1.3443,1.3439,1.3547,1.356,1.3595,1.3744,1.3751,1.3643,1.3649,1.3653,1.3656,0,0,0,0,0,0,0,1.3144,1.3165,1.3367,1.3323,1.3327,1.3327,1.3342,1.3442,1.3492,1.3408,1.3407,1.3424,1.3548,1.3586,1.3599,1.3754,1.3643,1.3651,1.3657,1.3661,1.4015,1.4019,0,0,0,0,0,0,1.313,1.3157,1.3363,1.3372,1.323,1.3335,1.3352,1.3401,1.3491,1.3501,1.3427,1.3423,1.3572,1.3588,1.3604,1.3757,1.3653,1.3662,1.3667,1.4011,1.4016,1.402,0,0,0,0,0,0,1.3124,1.3149,1.3357,1.3264,1.3291,1.3343,1.3399,1.3406,1.3443,1.3506,1.3515,1.3456,1.357,1.3591,1.3704,1.3762,1.3666,1.3674,1.4007,1.4013,1.4018,1.4061,0,0,0,0,0,0,1.3116,1.3146,1.3192,1.3265,1.3296,1.3452,1.3402,1.3411,1.3459,1.3455,1.3535,1.3545,1.3569,1.369,1.3714,1.3773,1.3682,1.4002,1.4009,1.4016,1.4055,1.4067,1.4078,0,0,0,0,0,1.3106,1.3199,1.3194,1.3219,1.3353,1.3455,1.3473,1.3496,1.3463,1.3511,1.3551,1.3543,1.3751,1.3702,1.3728,1.3791,1.3998,1.4007,1.4015,1.4049,1.4065,1.4078,0,0,0,0,0,0,1.3133,1.3209,1.3204,1.3323,1.3383,1.3453,1.3514,1.3511,1.3583,1.3577,1.3605,1.3623,1.3738,1.3775,1.3719,1.3917,1.3871,1.3885,1.3888,1.3903,1.3915,1.3904,1.3689,0,0,0,0,0,1.3152,1.3227,1.329,1.3389,1.3419,1.3461,1.3507,1.3519,1.3583,1.3609,1.3657,1.3722,1.3802,1.3854,1.3931,1.4059,1.4079,1.4116,1.4127,1.4137,1.415,1.4223,1.4242,1.4048,1.4048,1.4048,0,0,1.3194,1.3245,1.329,1.3396,1.3443,1.3522,1.3483,1.3567,1.3628,1.3622,1.3732,1.377,1.3844,1.3966,1.4022,1.4001,1.4207,1.4148,1.4155,1.4163,1.4234,1.4252,1.4269,1.4054,1.4053,1.4052,0,0,1.3311,1.3355,1.3444,1.3492,1.3564,1.3591,1.3613,1.3684,1.3709,1.3819,1.3817,1.389,1.4027,1.4081,1.4126,1.4264,1.4261,1.4288,1.4351,1.4423,1.4438,1.4452,1.4504,1.4522,1.43,1.43,1.4301,0,1.3354,1.3471,1.349,1.3576,1.3624,1.362,1.3712,1.3759,1.3853,1.3888,1.3862,1.4035,1.4084,1.422,1.4253,1.4289,1.4317,1.428,1.4433,1.4448,1.4461,1.4511,1.453,1.4304,1.4303,1.4303,1.4303,0,1.3522,1.3604,1.3667,1.3756,1.3811,1.3899,1.3935,1.3988,1.3996,1.4027,1.4142,1.42,1.4291,1.4323,1.4332,1.4462,1.4447,1.4427,1.4382,1.4482,1.453,1.4549,1.4308,1.4307,1.4306,1.4305,0,0,1.3661,1.376,1.3783,1.3824,1.3904,1.3968,1.4058,1.4144,1.4191,1.4256,1.4334,1.445,1.4433,1.4484,1.4499,1.4562,1.4671,1.4535,1.4537,1.4561,1.4821,1.4837,1.4859,1.4668,1.4672,1.4675,1.4816,0,1.3788,1.3944,1.3964,1.4104,1.4181,1.4179,1.4258,1.4317,1.4349,1.4421,1.4457,1.454,1.451,1.4541,1.4602,1.4645,1.4724,1.4635,1.4745,1.4749,1.4729,1.4883,1.49,1.503,1.4834,1.4837,1.484,0,1.3957,1.4025,1.4172,1.4243,1.4276,1.4345,1.4427,1.4495,1.4563,1.4582,1.464,1.4647,1.4743,1.4693,1.4827,1.4766,1.4812,1.484,1.4846,1.4859,1.4802,1.4904,1.5072,1.5092,1.4869,1.4866,1.4864,0,1.4047,1.4176,1.4281,1.4316,1.44,1.445,1.4488,1.4552,1.4603,1.4675,1.4709,1.4792,1.4838,1.4904,1.4935,1.4895,1.5069,1.502,1.5091,1.5091,1.513,1.5127,1.5311,1.5155,1.5155,1.5154,1.5154,0,1.4188,1.4278,1.4322,1.4387,1.449,1.4514,1.4615,1.4652,1.471,1.4784,1.4788,1.4858,1.4893,1.497,1.4995,1.5105,1.5125,1.5146,1.5152,1.5147,1.5145,1.518,1.5173,1.516,1.5158,1.5157,1.5157,0,1.4306,1.4339,1.4454,1.4524,1.4543,1.4616,1.4678,1.4743,1.4773,1.4868,1.4892,1.4942,1.5032,1.5069,1.5181,1.5198,1.5325,1.5323,1.5301,1.5304,1.5374,1.5368,1.5588,1.562,1.544,1.5442,1.5443,0,1.4395,1.4465,1.4542,1.4591,1.463,1.4709,1.476,1.4787,1.4842,1.4925,1.4981,1.507,1.5144,1.5289,1.5338,1.5424,1.5426,1.5497,1.5439,1.5433,1.5431,1.5427,1.5436,1.5508,1.551,1.5512,1.5513,0,1.4551,1.4564,1.4637,1.4717,1.4778,1.4842,1.4905,1.4946,1.4983,1.5044,1.5136,1.5193,1.5306,1.5397,1.5486,1.5528,1.5529,1.553,1.5552,1.5549,1.5535,1.5547,1.5334,1.5526,1.5525,1.5524,1.5523,1.5522,1.466,1.4722,1.4786,1.4869,1.4918,1.4978,1.5042,1.5081,1.5157,1.525,1.5261,1.5361,1.543,1.5548,1.5594,1.5675,1.5657,1.5687,1.5695,1.5703,1.5709,1.552,1.5691,1.569,1.569,1.569,1.5689,0,1.4818,1.4859,1.4934,1.5021,1.5087,1.5078,1.5148,1.5204,1.529,1.5353,1.5425,1.5532,1.562,1.5675,1.5765,1.5819,1.5821,1.5842,1.584,1.585,1.5719,1.5692,1.5838,1.5838,1.5838,1.5838,1.5838,1.5838,1.4908,1.5014,1.5035,1.5167,1.5208,1.5304,1.5345,1.5401,1.5451,1.5569,1.5642,1.5676,1.5737,1.5831,1.5913,1.5927,1.5962,1.5984,1.5997,1.5874,1.5859,1.5844,1.582,1.599,1.599,1.6122,1.6124,1.6125]},{"header":{"parameterUnit":"m.s-1","parameterCategory":1,"la1":30.2991,"la2":30.254,"lo1":-89.0895,"lo2":-89.0444,"dy":0.0017,"dx":0.0017,"nx":28,"ny":28,"refTime":"2024-09-29T03:00:00:Z","depth":0,"parameterNumber":3,"parameterNumberName":"V-component_of_WINDS"},"data":[0,0,0,0,0,0,0,0,0,0,0,0,0,0,0,0,0,0,0,0,0,0,0,0,0,0,0,0,0,0,0,0,0,0,0,0,0,0,0,0,0,0,0,0,0,0,0,0,0,0,0,0,0,0,0,0,0,0,-0.058,-0.0579,0,-0.0512,-0.0511,-0.051,-0.0509,-0.0509,-0.051,-0.0511,-0.0437,-0.0434,-0.0431,0,0,0,0,0,0,0,0,0,0,0,0,0,-0.0704,-0.0702,-0.058,-0.0579,-0.0578,-0.0512,-0.0511,-0.051,-0.0508,-0.0509,-0.051,-0.0511,-0.0438,-0.0434,-0.0431,0,0,0,0,0,0,0,0,0,0,0,0,0,-0.0645,-0.0701,-0.058,-0.0569,-0.0568,-0.0512,-0.0511,-0.051,-0.0508,-0.0509,-0.0511,-0.0512,-0.0439,-0.0435,-0.0431,-0.038,0,0,-0.0418,-0.0416,0,0,0,0,0,0,0,0,-0.0648,-0.064,-0.0572,-0.057,-0.0568,-0.052,-0.0528,-0.0466,-0.0508,-0.0531,-0.0511,-0.0513,-0.0463,-0.0457,-0.0441,-0.0376,-0.0373,-0.0418,-0.0415,-0.0413,-0.0412,0,0,0,0,0,0,0,-0.0652,-0.0643,-0.0553,-0.0571,-0.0569,-0.0567,-0.056,-0.0516,-0.049,-0.0529,-0.0529,-0.0521,-0.0462,-0.0445,-0.044,-0.0372,-0.0418,-0.0414,-0.0412,-0.041,-0.0261,-0.0259,0,0,0,0,0,0,-0.0659,-0.0646,-0.0555,-0.0551,-0.0612,-0.0564,-0.0556,-0.0534,-0.0491,-0.0486,-0.052,-0.0521,-0.0452,-0.0445,-0.0437,-0.0374,-0.0413,-0.0409,-0.0407,-0.0262,-0.026,-0.0259,0,0,0,0,0,0,-0.0662,-0.0651,-0.0558,-0.0599,-0.0587,-0.056,-0.0536,-0.0532,-0.0515,-0.0484,-0.0479,-0.0507,-0.0453,-0.0443,-0.0394,-0.0372,-0.0408,-0.0404,-0.0264,-0.0262,-0.026,-0.0248,0,0,0,0,0,0,-0.0665,-0.0652,-0.0633,-0.0598,-0.0584,-0.0517,-0.0535,-0.053,-0.0509,-0.051,-0.0471,-0.0466,-0.0453,-0.04,-0.039,-0.0366,-0.0401,-0.0266,-0.0263,-0.026,-0.025,-0.0246,-0.0242,0,0,0,0,0,-0.067,-0.0632,-0.0632,-0.0621,-0.0561,-0.0516,-0.0508,-0.0495,-0.0507,-0.0487,-0.0467,-0.0467,-0.0376,-0.0395,-0.0384,-0.0359,-0.0267,-0.0264,-0.0261,-0.0252,-0.0247,-0.0242,0,0,0,0,0,0,-0.0663,-0.0627,-0.0627,-0.0577,-0.055,-0.0516,-0.049,-0.0489,-0.0457,-0.0459,-0.0443,-0.0434,-0.0386,-0.0367,-0.039,-0.0307,-0.0323,-0.0317,-0.032,-0.0315,-0.0311,-0.0316,-0.0397,0,0,0,0,0,-0.0656,-0.0624,-0.0594,-0.0552,-0.0539,-0.0517,-0.0497,-0.0489,-0.046,-0.0448,-0.0424,-0.0395,-0.0359,-0.0336,-0.0302,-0.0248,-0.0239,-0.0225,-0.0221,-0.0217,-0.0212,-0.0182,-0.0175,-0.0248,-0.0248,-0.0248,0,0,-0.064,-0.0617,-0.0597,-0.055,-0.0528,-0.0494,-0.0507,-0.0471,-0.0445,-0.0442,-0.0395,-0.0377,-0.0342,-0.0291,-0.0267,-0.0274,-0.019,-0.0213,-0.0211,-0.0207,-0.0178,-0.0171,-0.0165,-0.0246,-0.0246,-0.0247,0,0,-0.0594,-0.0574,-0.0537,-0.0515,-0.0482,-0.0468,-0.046,-0.0426,-0.0414,-0.0367,-0.0364,-0.0333,-0.0272,-0.0248,-0.0227,-0.0173,-0.0172,-0.0162,-0.014,-0.011,-0.0104,-0.0099,-0.0079,-0.0072,-0.0157,-0.0157,-0.0157,0,-0.0579,-0.0529,-0.0518,-0.0481,-0.046,-0.0458,-0.042,-0.0399,-0.0356,-0.0341,-0.035,-0.0274,-0.0251,-0.0193,-0.018,-0.0164,-0.0152,-0.0166,-0.0107,-0.0101,-0.0096,-0.0077,-0.0069,-0.0156,-0.0157,-0.0157,-0.0157,0,-0.0511,-0.0476,-0.045,-0.0411,-0.0387,-0.035,-0.0332,-0.0309,-0.0303,-0.0288,-0.024,-0.0212,-0.0172,-0.0158,-0.0151,-0.0099,-0.0104,-0.011,-0.0126,-0.0088,-0.007,-0.0062,-0.0155,-0.0155,-0.0156,-0.0156,0,0,-0.0458,-0.0414,-0.0404,-0.0386,-0.035,-0.0323,-0.0285,-0.0247,-0.0228,-0.0198,-0.0165,-0.0115,-0.012,-0.0097,-0.0088,-0.0062,-0.002,-0.0071,-0.007,-0.0062,0.004,0.0045,0.0053,-0.002,-0.0018,-0.0017,0.0037,0,-0.0408,-0.0343,-0.0332,-0.0274,-0.0242,-0.0239,-0.0206,-0.018,-0.0165,-0.0134,-0.0116,-0.008,-0.009,-0.0076,-0.0051,-0.0031,0.0001,-0.0035,0.0013,0.0014,0.0005,0.0063,0.0068,0.0118,0.0045,0.0046,0.0047,0,-0.0341,-0.0312,-0.0251,-0.022,-0.0205,-0.0176,-0.0141,-0.0112,-0.0082,-0.0072,-0.0047,-0.0041,-0.0001,-0.0019,0.0038,0.0013,0.0033,0.0046,0.0048,0.0054,0.0033,0.0071,0.0134,0.0142,0.0058,0.0057,0.0056,0,-0.0308,-0.0253,-0.021,-0.0194,-0.0157,-0.0136,-0.0119,-0.009,-0.0069,-0.0037,-0.0023,0.0014,0.0034,0.0062,0.0078,0.0063,0.0134,0.0117,0.0144,0.0144,0.016,0.0159,0.0228,0.0171,0.0171,0.0171,0.0171,0,-0.0253,-0.0216,-0.0194,-0.0168,-0.0126,-0.0113,-0.0071,-0.0055,-0.0029,0.0002,0.0007,0.0036,0.0055,0.0088,0.0101,0.0146,0.0155,0.0165,0.0168,0.0165,0.0164,0.0179,0.0176,0.0173,0.0173,0.0172,0.0172,0,-0.0208,-0.0193,-0.0145,-0.0114,-0.0105,-0.0076,-0.0048,-0.0021,-0.0007,0.0033,0.0043,0.0067,0.0105,0.0123,0.0172,0.018,0.0232,0.0233,0.0221,0.0223,0.0249,0.0247,0.0332,0.0344,0.0278,0.0278,0.0279,0,-0.0174,-0.0145,-0.0111,-0.0091,-0.0074,-0.0041,-0.0019,-0.0006,0.0017,0.0054,0.0076,0.0115,0.0146,0.0207,0.023,0.0267,0.0269,0.0296,0.0275,0.0271,0.0271,0.0269,0.0273,0.0301,0.0301,0.0302,0.0302,0,-0.0114,-0.0108,-0.0077,-0.0044,-0.0018,0.0009,0.0036,0.0053,0.0071,0.0097,0.0136,0.016,0.0208,0.0247,0.0285,0.0304,0.0307,0.0308,0.0317,0.0315,0.0307,0.0312,0.0233,0.0307,0.0306,0.0306,0.0306,0.0305,-0.0072,-0.0047,-0.002,0.0015,0.0036,0.0061,0.0088,0.0105,0.0137,0.0176,0.0183,0.0224,0.0254,0.0306,0.0326,0.0359,0.0353,0.0366,0.0369,0.0372,0.0374,0.0301,0.0366,0.0366,0.0366,0.0366,0.0366,0,-0.0012,0.0006,0.0037,0.0074,0.0101,0.0099,0.0129,0.0152,0.0188,0.0215,0.0245,0.029,0.0327,0.0352,0.039,0.0412,0.0414,0.0422,0.0421,0.0425,0.0376,0.0366,0.0419,0.0419,0.0419,0.0419,0.0419,0.0419,0.0023,0.0066,0.0076,0.013,0.0147,0.0186,0.0204,0.0227,0.0249,0.0298,0.0328,0.0344,0.037,0.041,0.0445,0.0451,0.0466,0.0473,0.048,0.0434,0.0429,0.0423,0.0413,0.0476,0.0476,0.0526,0.0527,0.0527]}]]